Groton, CT

12:14 AM EDT on July 24, 2016 (GMT -0400)
Groton-New London

Weather History for KGON - April, 2013

Change the Weather History Date:

Wednesday, April 17, 2013

  Actual Average Record
Temperature  
Mean Temperature 58 °F -  
Max Temperature 70 °F 57 °F 84 °F (1976)
Min Temperature 41 °F 39 °F 28 °F (2005)
Degree Days  
Heating Degree Days 8    
Growing Degree Days 8 (Base 50)    
Moisture  
Dew Point 40 °F    
Average Humidity 61    
Maximum Humidity 94    
Minimum Humidity 24    
Precipitation  
Precipitation 0.00 in - - ()
Sea Level Pressure  
Sea Level Pressure 30.18 in    
Wind  
Wind Speed 8 mph (NW)    
Max Wind Speed 13 mph    
Max Gust Speed 18 mph    
Visibility 10 miles    
Events Rain    
Averages and records for this station are not official NWS values.
T = Trace of Precipitation, MM = Missing Value Source: NWS Daily Summary

Daily Weather History Graph

Daily Weather History Graph

Search for Another Location

Airport or City:

Trip Planner

Search our weather history database for the weather conditions in past years. The results will help you decide how hot, cold, wet, or windy it might be!

Date:

Astronomy

Apr. 17, 2013 Rise Set
Actual Time 6:05 AM EDT 7:30 PM EDT
Civil Twilight 5:36 AM EDT 7:59 PM EDT
Nautical Twilight 5:01 AM EDT 8:34 PM EDT
Astronomical Twilight 4:25 AM EDT 9:11 PM EDT
Moon 11:15 AM EDT (4/17) 1:08 AM EDT (4/17)
Length of Visible Light 14h 23m
Length of Day
13h 25m
Waxing Crescent, 42% of the Moon is Illuminated
Apr 17
Waxing Crescent
Apr 18
First Quarter
Apr 25
Full
May 2
Last Quarter
May 9
New

Hourly Weather History & Observations

Time (EDT) Temp. Windchill Dew Point Humidity Pressure Visibility Wind Dir Wind Speed Gust Speed Precip Events Conditions
12:56 AM 52.0 °F - 46.9 °F 83% 30.15 in 9.0 mi SW 8.1 mph - N/A   Overcast
1:56 AM 50.0 °F - 46.9 °F 89% 30.13 in 8.0 mi SSW 6.9 mph - 0.00 in Rain Light Rain
2:56 AM 52.0 °F - 48.0 °F 86% 30.12 in 8.0 mi SW 8.1 mph - N/A   Overcast
3:19 AM 51.8 °F - 48.2 °F 88% 30.12 in 7.0 mi SW 5.8 mph - 0.00 in Rain Light Rain
3:56 AM 53.1 °F - 48.9 °F 86% 30.11 in 8.0 mi WSW 9.2 mph - 0.00 in Rain Light Rain
4:56 AM 54.0 °F - 50.0 °F 86% 30.11 in 8.0 mi Calm Calm - 0.00 in   Overcast
5:09 AM 53.6 °F - 51.8 °F 94% 30.11 in 8.0 mi WNW 4.6 mph - N/A   Overcast
5:56 AM 54.0 °F - 44.1 °F 69% 30.12 in 10.0 mi NNW 12.7 mph - N/A   Overcast
6:25 AM 53.6 °F - 39.2 °F 58% 30.12 in 10.0 mi NNW 8.1 mph - N/A   Overcast
6:56 AM 53.1 °F - 36.0 °F 52% 30.14 in 10.0 mi NNW 6.9 mph - N/A   Mostly Cloudy
7:56 AM 54.0 °F - 36.0 °F 51% 30.16 in 10.0 mi North 6.9 mph - N/A   Overcast
8:56 AM 55.9 °F - 37.9 °F 51% 30.18 in 10.0 mi NNW 9.2 mph - N/A   Overcast
9:56 AM 57.9 °F - 37.9 °F 47% 30.19 in 10.0 mi North 11.5 mph - N/A   Clear
10:56 AM 63.0 °F - 36.0 °F 37% 30.19 in 10.0 mi North 10.4 mph - N/A   Clear
11:56 AM 66.0 °F - 35.1 °F 32% 30.17 in 10.0 mi NW 8.1 mph 16.1 mph N/A   Clear
12:56 PM 66.2 °F - 33.8 °F 30% 30.16 in 10.0 mi North 8.1 mph 18.4 mph N/A   Clear
1:56 PM 68.0 °F - 34.0 °F 28% 30.17 in 10.0 mi NNW 10.4 mph - N/A   Clear
2:56 PM 69.1 °F - 30.9 °F 24% 30.17 in 10.0 mi NNW 10.4 mph 16.1 mph N/A   Clear
3:56 PM 69.1 °F - 30.9 °F 24% 30.17 in 10.0 mi WNW 11.5 mph - N/A   Clear
4:56 PM 64.9 °F - 37.0 °F 36% 30.18 in 10.0 mi SW 9.2 mph - N/A   Clear
5:56 PM 55.9 °F - 37.9 °F 51% 30.20 in 10.0 mi South 12.7 mph - N/A   Clear
6:56 PM 53.1 °F - 41.0 °F 64% 30.23 in 10.0 mi SE 9.2 mph - N/A   Clear
7:56 PM 48.9 °F - 41.0 °F 74% 30.27 in 10.0 mi SE 9.2 mph - N/A   Clear
8:56 PM 48.0 °F - 39.0 °F 71% 30.29 in 10.0 mi ESE 5.8 mph - N/A   Clear
9:56 PM 48.0 °F - 39.0 °F 71% 30.32 in 10.0 mi Calm Calm - N/A   Clear
10:56 PM 46.0 °F 44.8 °F 39.0 °F 76% 30.32 in 10.0 mi ENE 3.5 mph - N/A   Clear
11:56 PM 41.0 °F - 37.0 °F 86% 30.32 in 10.0 mi Calm Calm - N/A   Clear